Flag for Botswana Weather past 2 weeks in Francistown, Botswana

Now
97 °F

Sunny.


Feels Like: 92 °F
Forecast: 54 / 95 °F
Wind: 3 mph from Northeast

Location: Francistown Airport

Current Time: Sep 18, 2014 at 4:48:32 PM

Latest Report: Sep 18, 2014 at 4:00 PM


Visibility: 10 mi

Pressure: 29.89 "Hg

Humidity: 8%

Dew point: 27 °F

Location of FrancistownLocation

Historic Weather in Francistown — Graph

°F

Francistown temperature yesterday

Maximum temperature yesterday: 95 °F (at 2:00 PM)
Minimum temperature yesterday: 52 °F (at 6:00 AM)
Average temperature yesterday: 74 °F

Past Weeks' High & Low Weather Summary

 TemperatureHumidityPressure
High99 °F (Sep 18, 2:00 PM)82% (Sep 14, 5:00 AM)30.36 "Hg (Sep 14, 5:00 AM)
Low39 °F (Sep 4, 4:00 AM)8% (Sep 18, 2:00 PM)29.89 "Hg (Sep 17, 4:00 PM)
Average69 °F36%30.16 "Hg
* Reported Sep 3 3:00 PM — Sep 18 3:00 PM, Francistown, Weather by CustomWeather, © 2014

Note: Actual official high and low records may vary slightly from our data, if they occured in-between our weather recording intervals... More about our weather records

Advertising

Francistown weather history for previous 24 hours

 ConditionsComfort  
Time TempWeatherWind HumidityBarometerVisibility
3:00 PM
Sep 18
99 °FSunny.9 mph8%29.89 "Hg10 mi
2:00 PM99 °FSunny.5 mph8%29.89 "Hg10 mi
1:00 PM97 °FSunny.8 mph9%29.89 "Hg10 mi
12:00 PM97 °FSunny.10 mph9%29.95 "Hg10 mi
11:00 AM93 °FSunny.13 mph13%29.98 "Hg10 mi
10:00 AM90 °FSunny.6 mph15%29.98 "Hg10 mi
9:00 AM82 °FSunny.6 mph20%30.01 "Hg10 mi
8:00 AM72 °FSunny.2 mph27%30.01 "Hg10 mi
7:00 AM57 °FSunny.1 mph39%29.98 "Hg10 mi
6:00 AM57 °FSunny.5 mph39%29.95 "Hg10 mi
5:00 AM55 °FClear.6 mph44%29.98 "Hg10 mi
4:00 AM55 °FClear.5 mph41%29.98 "Hg10 mi
3:00 AM55 °FClear.2 mph38%29.95 "Hg10 mi
2:00 AM57 °FClear.2 mph39%29.98 "Hg10 mi
1:00 AM61 °FClear.5 mph34%29.98 "Hg10 mi
12:00 AM63 °FClear.5 mph32%29.98 "Hg10 mi
11:00 PM
Sep 17
66 °FClear.5 mph30%30.01 "Hg10 mi
10:00 PM66 °FClear.2 mph28%30.01 "Hg10 mi
9:00 PM70 °FClear.3 mph27%29.95 "Hg10 mi
8:00 PM73 °FClear.2 mph23%29.95 "Hg10 mi
6:00 PM90 °FClear.5 mph14%29.92 "Hg10 mi
5:00 PM90 °FSunny.1 mph15%29.89 "Hg10 mi
4:00 PM95 °FSunny.5 mph12%29.89 "Hg10 mi
Weather by CustomWeather, © 2014

See weather overviewHow to use our weather pages